Overview Statistics Trail Chart Weather Telemetry Raw packets
 

This is the latest recevied weather packets stored in our database for station/object W5DNT. If no packets are shown the sender has not sent any weather packets the latest 10 day(s).

<< 3 4 5 6 7 8 9 >>
Time Temp. Humidity Pressure Rain* Wind** Luminosity Snow
1788534948 23.89° C 86% 1013.6 hPa 0 mm - - -
1788534047 23.33° C 85% 1013.5 hPa 0 mm - - -
1788533146 23.89° C 85% 1013.6 hPa 0 mm - - -
1788532242 24.44° C 85% 1013.7 hPa 0 mm - - -
1788531365 24.44° C 86% 1013.5 hPa 0 mm - - -
1788530449 25° C 86% 1013.5 hPa 0 mm - - -
1788529539 25° C 85% 1013.3 hPa 0 mm - - -
1788528641 24.44° C 85% 1013.3 hPa 0 mm - - -
1788527753 24.44° C 86% 1012.9 hPa 0 mm - - -
1788526829 - - 1012.4 hPa 0 mm - - -
1788525925 - - 1012.4 hPa 0 mm - - -
1788525021 - - 1012.2 hPa 0 mm - - -
1788524123 - - 1011.8 hPa 0 mm - - -
1788523212 - - 1012 hPa 0 mm - - -
1788522309 25.56° C 82% 1012.2 hPa 0 mm - - -
1788521422 25.56° C 81% 1012.4 hPa 0 mm - - -
1788520514 25.56° C 81% 1011.9 hPa 0 mm - - -
1788519603 25.56° C 82% 1011.5 hPa 0 mm - - -
1788518703 25.56° C 82% 1011.3 hPa 0 mm - - -
1788517801 25.56° C 82% 1011 hPa 0 mm - - -
1788516961 25.56° C 81% 1011.1 hPa 0 mm - - -
1788516069 25.56° C 80% 1011.3 hPa 0 mm - - -
1788515159 26.11° C 79% 1011.2 hPa 0 mm - - -
1788514259 26.11° C 79% 1011.4 hPa 0 mm - - -
1788513358 26.11° C 79% 1011.1 hPa 0 mm - - -

* Rain latest hour (hover to see other rain measurements)
** Current wind speed in m/s (hover to see current wind gust speed)